[[{"header":{"parameterUnit":"m.s-1","parameterCategory":2,"la1":30.2991,"la2":30.254,"lo1":-89.0895,"lo2":-89.0444,"dy":0.0017,"dx":0.0017,"nx":28,"ny":28,"refTime":"2023-08-20T21:00:00:Z","depth":"0","parameterNumber":2,"parameterNumberName":"U-component_of_CURRENTS"},"data":[0,0,0,0,0,0,0,0,0,0,0,0,0,0,0,0,0,0,0,0,0,0,0,0,0,0,0,0,0,0,0,0,0,0,0,0,0,0,0,0,0,0,0,0,0,0,0,0,0,0,0,0,0,0,0,0,0,0,0.2675,0.2675,0,0.2701,0.2701,0.2701,0.2708,0.2708,0.2708,0.2709,0.2641,0.2639,0.2637,0,0,0,0,0,0,0,0,0,0,0,0,0,0.2505,0.2509,0.2675,0.2676,0.2676,0.2701,0.2701,0.2701,0.2708,0.2708,0.2709,0.2709,0.2642,0.2639,0.2637,0,0,0,0,0,0,0,0,0,0,0,0,0,0.2555,0.251,0.2675,0.2687,0.2689,0.2701,0.2701,0.2701,0.2708,0.2708,0.2709,0.2709,0.2643,0.2639,0.2636,0.2606,0,0,0.2627,0.2625,0,0,0,0,0,0,0,0,0.2552,0.2561,0.2684,0.2686,0.2688,0.2707,0.2617,0.2666,0.2707,0.2695,0.2709,0.2709,0.2657,0.2653,0.265,0.2603,0.26,0.2626,0.2624,0.2623,0.2622,0,0,0,0,0,0,0,0.2549,0.2559,0.2679,0.2685,0.2688,0.2649,0.2657,0.2625,0.2667,0.2696,0.2698,0.2709,0.2657,0.2653,0.2649,0.2599,0.2626,0.2623,0.2621,0.262,0.2557,0.2557,0,0,0,0,0,0,0.2564,0.2557,0.2679,0.2681,0.2626,0.2652,0.2661,0.2696,0.2669,0.2668,0.2709,0.271,0.2659,0.2652,0.2646,0.2637,0.2623,0.262,0.2618,0.2557,0.2557,0.2557,0,0,0,0,0,0,0.256,0.2575,0.2678,0.2622,0.2633,0.2656,0.2694,0.2696,0.2697,0.2681,0.2677,0.2709,0.2659,0.2651,0.2619,0.2633,0.2618,0.2616,0.2556,0.2557,0.2557,0.26,0,0,0,0,0,0,0.2556,0.2574,0.2601,0.2624,0.2637,0.268,0.2694,0.2696,0.2706,0.2707,0.268,0.2674,0.2659,0.2624,0.2616,0.2629,0.2613,0.2556,0.2557,0.2557,0.2598,0.2602,0.2605,0,0,0,0,0,0.255,0.2581,0.2602,0.2617,0.2675,0.268,0.2682,0.2695,0.2706,0.2698,0.2685,0.2675,0.2622,0.2621,0.2611,0.2624,0.2556,0.2557,0.2557,0.2597,0.2601,0.2604,0,0,0,0,0,0,0.2531,0.2586,0.2609,0.2661,0.267,0.2684,0.2683,0.2695,0.2681,0.2677,0.2665,0.2657,0.2639,0.262,0.2619,0.2608,0.2592,0.2591,0.2626,0.2629,0.2632,0.2606,0.261,0,0,0,0,0,0.254,0.2571,0.2611,0.2647,0.2652,0.2668,0.2673,0.2679,0.2675,0.2671,0.2655,0.264,0.2633,0.2621,0.26,0.2582,0.2576,0.2588,0.2591,0.2594,0.2566,0.2594,0.2597,0.2559,0.2559,0.2559,0,0,0.2547,0.2577,0.26,0.2643,0.2649,0.2637,0.267,0.2671,0.266,0.2662,0.2632,0.2641,0.2629,0.2618,0.2609,0.2604,0.2605,0.2595,0.2597,0.2567,0.2595,0.2598,0.2602,0.2559,0.2559,0.2559,0,0,0.2531,0.2596,0.2594,0.2598,0.261,0.2618,0.262,0.2629,0.2634,0.2613,0.2627,0.2638,0.2605,0.2615,0.2615,0.2616,0.2619,0.2625,0.262,0.2649,0.2652,0.2655,0.2668,0.2672,0.263,0.263,0.2631,0,0.254,0.2548,0.259,0.257,0.2576,0.2607,0.2587,0.2589,0.2586,0.2607,0.2599,0.2619,0.26,0.2628,0.2625,0.2623,0.2637,0.2612,0.2654,0.2657,0.2659,0.2671,0.2675,0.2633,0.2632,0.2632,0.2632,0,0.2503,0.2506,0.25,0.2495,0.2503,0.2493,0.2511,0.2519,0.2536,0.2558,0.2591,0.259,0.2613,0.2623,0.261,0.264,0.2646,0.2657,0.2647,0.2665,0.2678,0.268,0.2636,0.2635,0.2634,0.2634,0,0,0.2536,0.2488,0.2485,0.2461,0.2467,0.2467,0.2466,0.2493,0.2511,0.2531,0.2569,0.2573,0.2618,0.2617,0.2644,0.2656,0.268,0.2656,0.2656,0.2672,0.2741,0.2616,0.2607,0.2716,0.2716,0.2716,0.2749,0,0.2495,0.243,0.2433,0.2383,0.2355,0.2397,0.2396,0.2431,0.2468,0.2505,0.2569,0.2588,0.2608,0.2627,0.2654,0.2677,0.2687,0.2669,0.2715,0.2715,0.2606,0.2605,0.2481,0.2488,0.2752,0.2753,0.2753,0,0.2449,0.2416,0.2356,0.2327,0.2327,0.2313,0.236,0.2359,0.2438,0.2473,0.255,0.2595,0.2645,0.2636,0.2705,0.2703,0.2705,0.2715,0.2718,0.2576,0.2594,0.2508,0.2483,0.2431,0.2757,0.2757,0.2756,0,0.2424,0.2363,0.2315,0.2305,0.2285,0.2294,0.2298,0.2361,0.2376,0.2454,0.2484,0.2586,0.2605,0.2665,0.2675,0.2705,0.2716,0.2775,0.2668,0.2661,0.2543,0.2522,0.2465,0.2784,0.2784,0.2784,0.2784,0,0.2382,0.2344,0.2295,0.2275,0.2248,0.2254,0.2258,0.2292,0.2341,0.2363,0.2462,0.2489,0.2603,0.2634,0.2675,0.2658,0.2727,0.2642,0.2651,0.2553,0.2534,0.2471,0.2461,0.2785,0.2785,0.2784,0.2784,0,0.2358,0.2318,0.2265,0.2237,0.2226,0.2214,0.221,0.2216,0.2265,0.2296,0.2314,0.2412,0.2464,0.2544,0.2605,0.2613,0.2542,0.2591,0.2447,0.2436,0.2311,0.2308,0.2144,0.2081,0.2531,0.2528,0.2526,0,0.2331,0.2293,0.2244,0.2214,0.2199,0.2174,0.2158,0.2181,0.2183,0.2241,0.2248,0.2302,0.2344,0.2388,0.2395,0.2437,0.2403,0.2308,0.2326,0.2249,0.2256,0.2197,0.2154,0.2214,0.2209,0.2205,0.2201,0,0.23,0.2286,0.2262,0.2193,0.2157,0.2106,0.2079,0.2066,0.2094,0.2114,0.212,0.2153,0.2189,0.2168,0.2173,0.219,0.2179,0.2224,0.2197,0.2014,0.1894,0.1855,0.225,0.2165,0.2169,0.2172,0.2174,0.2175,0.2293,0.2277,0.2235,0.2174,0.2112,0.2028,0.1963,0.1952,0.1926,0.1913,0.198,0.1975,0.1978,0.1991,0.1971,0.1855,0.192,0.1834,0.1846,0.1802,0.1679,0.1959,0.1843,0.1845,0.1846,0.1848,0.1849,0,0.2278,0.2258,0.2204,0.2103,0.1992,0.1978,0.1894,0.1819,0.1752,0.1782,0.1772,0.1731,0.1687,0.1691,0.1596,0.1508,0.1468,0.1465,0.1395,0.1385,0.1687,0.1611,0.1372,0.1372,0.1372,0.1372,0.1372,0.1372,0.2271,0.223,0.2197,0.2006,0.1909,0.1731,0.1659,0.1591,0.1572,0.15,0.1462,0.1467,0.1485,0.1404,0.1295,0.126,0.1194,0.108,0.113,0.1395,0.1432,0.1468,0.1395,0.1113,0.1113,0.0762,0.0759,0.0757]},{"header":{"parameterUnit":"m.s-1","parameterCategory":2,"la1":30.2991,"la2":30.254,"lo1":-89.0895,"lo2":-89.0444,"dy":0.0017,"dx":0.0017,"nx":28,"ny":28,"refTime":"2023-08-20T21:00:00:Z","depth":"0","parameterNumber":3,"parameterNumberName":"V-component_of_CURRENTS"},"data":[0,0,0,0,0,0,0,0,0,0,0,0,0,0,0,0,0,0,0,0,0,0,0,0,0,0,0,0,0,0,0,0,0,0,0,0,0,0,0,0,0,0,0,0,0,0,0,0,0,0,0,0,0,0,0,0,0,0,-0.0847,-0.0846,0,-0.0776,-0.0775,-0.0775,-0.0849,-0.0851,-0.0854,-0.0856,-0.0933,-0.0932,-0.0932,0,0,0,0,0,0,0,0,0,0,0,0,0,-0.1109,-0.1104,-0.0847,-0.0846,-0.0844,-0.0776,-0.0775,-0.0775,-0.0848,-0.0851,-0.0854,-0.0857,-0.0933,-0.0932,-0.0932,0,0,0,0,0,0,0,0,0,0,0,0,0,-0.1018,-0.1103,-0.0848,-0.0869,-0.0869,-0.0776,-0.0775,-0.0775,-0.0848,-0.0851,-0.0855,-0.0858,-0.0933,-0.0932,-0.0932,-0.086,0,0,-0.0932,-0.0931,0,0,0,0,0,0,0,0,-0.1023,-0.1009,-0.0867,-0.0867,-0.0868,-0.082,-0.0896,-0.0809,-0.0847,-0.0862,-0.0856,-0.086,-0.0902,-0.0905,-0.0889,-0.0864,-0.0867,-0.0932,-0.0931,-0.0931,-0.0931,0,0,0,0,0,0,0,-0.1029,-0.1013,-0.0825,-0.0865,-0.0865,-0.0903,-0.0894,-0.088,-0.087,-0.0861,-0.0865,-0.0847,-0.0905,-0.0889,-0.0892,-0.0869,-0.0932,-0.0931,-0.0931,-0.0931,-0.0866,-0.0864,0,0,0,0,0,0,-0.1018,-0.1017,-0.0827,-0.0822,-0.0949,-0.0894,-0.0885,-0.0836,-0.0867,-0.0873,-0.0844,-0.085,-0.0888,-0.0892,-0.0895,-0.086,-0.0931,-0.0931,-0.0931,-0.0867,-0.0865,-0.0864,0,0,0,0,0,0,-0.1023,-0.1,-0.083,-0.0917,-0.0897,-0.0885,-0.0831,-0.0833,-0.0817,-0.0851,-0.0862,-0.0826,-0.0891,-0.0896,-0.0888,-0.0862,-0.0931,-0.0931,-0.0869,-0.0867,-0.0864,-0.0759,0,0,0,0,0,0,-0.103,-0.1002,-0.0958,-0.0914,-0.0891,-0.0754,-0.0827,-0.0829,-0.0798,-0.0806,-0.0839,-0.085,-0.0894,-0.0888,-0.0888,-0.0863,-0.0931,-0.0871,-0.0868,-0.0865,-0.0764,-0.0753,-0.0743,0,0,0,0,0,-0.104,-0.0945,-0.0956,-0.0933,-0.0832,-0.0751,-0.0742,-0.0753,-0.0793,-0.0758,-0.0803,-0.0849,-0.087,-0.0885,-0.0886,-0.0861,-0.0873,-0.0869,-0.0865,-0.0769,-0.0755,-0.0744,0,0,0,0,0,0,-0.1018,-0.0941,-0.0953,-0.0837,-0.0796,-0.0761,-0.071,-0.0731,-0.0733,-0.0747,-0.0813,-0.0824,-0.0816,-0.084,-0.0856,-0.0834,-0.0883,-0.0879,-0.0809,-0.0797,-0.0787,-0.0761,-0.093,0,0,0,0,0,-0.0994,-0.0914,-0.0863,-0.077,-0.074,-0.0728,-0.0696,-0.0702,-0.0696,-0.0699,-0.0732,-0.0768,-0.0793,-0.0798,-0.0816,-0.078,-0.0785,-0.077,-0.0759,-0.075,-0.073,-0.0728,-0.0716,-0.0852,-0.0852,-0.0852,0,0,-0.0958,-0.0904,-0.0859,-0.0763,-0.0729,-0.0665,-0.0717,-0.0643,-0.0618,-0.0705,-0.0679,-0.0725,-0.0777,-0.0762,-0.0759,-0.0781,-0.0705,-0.0745,-0.0737,-0.0722,-0.0723,-0.071,-0.0698,-0.0849,-0.085,-0.085,0,0,-0.0842,-0.0796,-0.07,-0.0659,-0.0592,-0.059,-0.0566,-0.0528,-0.054,-0.0512,-0.059,-0.0613,-0.0627,-0.0667,-0.0692,-0.0622,-0.0654,-0.0633,-0.0552,-0.055,-0.0539,-0.0529,-0.0479,-0.0466,-0.0623,-0.0623,-0.0623,0,-0.081,-0.0686,-0.066,-0.0568,-0.0532,-0.0554,-0.0472,-0.0466,-0.0446,-0.0453,-0.0493,-0.0537,-0.0584,-0.0587,-0.058,-0.0598,-0.0586,-0.0598,-0.0536,-0.0527,-0.0519,-0.047,-0.0457,-0.0618,-0.0618,-0.0619,-0.0619,0,-0.0635,-0.0553,-0.0484,-0.0399,-0.0357,-0.0278,-0.0278,-0.0262,-0.0297,-0.0316,-0.0323,-0.0384,-0.0417,-0.044,-0.0492,-0.046,-0.0464,-0.0527,-0.0566,-0.0498,-0.0451,-0.0439,-0.061,-0.0612,-0.0613,-0.0615,0,0,-0.0529,-0.0394,-0.0375,-0.0331,-0.0268,-0.0215,-0.0176,-0.0152,-0.0138,-0.0159,-0.0142,-0.0204,-0.0251,-0.028,-0.0345,-0.0349,-0.0283,-0.0402,-0.0405,-0.0346,-0.0233,-0.0228,-0.0214,-0.0338,-0.0337,-0.0335,-0.0208,0,-0.0414,-0.0245,-0.0209,-0.0086,-0.0012,-0.0033,0.0002,0.0007,-0.0021,-0.001,-0.0086,-0.0093,-0.0186,-0.0199,-0.0216,-0.0278,-0.0253,-0.0309,-0.0312,-0.031,-0.0311,-0.0202,-0.0193,-0.008,-0.0197,-0.0195,-0.0194,0,-0.0263,-0.0181,-0.004,0.0041,0.0073,0.0129,0.0153,0.0188,0.0172,0.0151,0.0124,0.0064,0.005,-0.0042,-0.0072,-0.0102,-0.0141,-0.0186,-0.0184,-0.0209,-0.0284,-0.0176,-0.0055,-0.0122,-0.0176,-0.0178,-0.0179,0,-0.0227,-0.0068,0.003,0.0067,0.0157,0.0196,0.023,0.0233,0.026,0.0261,0.0278,0.0231,0.0219,0.016,0.0059,0.0004,0.004,-0.0055,-0.0069,-0.0068,-0.0075,-0.0078,-0.0018,-0.0043,-0.0043,-0.0043,-0.0044,0,-0.0132,-0.005,0.0058,0.011,0.0217,0.0258,0.0344,0.0356,0.0389,0.0442,0.0371,0.0398,0.0264,0.0246,0.0149,0.0103,0.0118,-0.0009,-0.0029,-0.0034,-0.0034,-0.011,-0.0163,-0.0038,-0.0039,-0.004,-0.0041,0,-0.0104,-0.003,0.0086,0.0196,0.024,0.0311,0.0426,0.0483,0.0505,0.0577,0.059,0.0547,0.0527,0.0422,0.0339,0.0231,0.015,0.0153,0.0185,0.0165,0.0055,0.0008,0.0075,0.0042,0.017,0.0171,0.0172,0,-0.0066,-0.0001,0.0134,0.0208,0.0268,0.0382,0.0463,0.0527,0.0591,0.0666,0.0711,0.0713,0.0717,0.0626,0.0453,0.0355,0.0238,0.0277,0.0152,0.0102,0.0033,-0.0002,-0.0039,0.0209,0.021,0.0211,0.0212,0,-0.0011,0.0025,0.0103,0.0253,0.0364,0.0491,0.0613,0.0677,0.076,0.083,0.0912,0.0931,0.084,0.0726,0.0574,0.0467,0.0239,0.029,0.022,0.0078,0.0064,0.0003,0.0103,0.0219,0.0218,0.0218,0.0217,0.0217,0.0016,0.0067,0.0171,0.0315,0.0445,0.0594,0.0687,0.0806,0.0929,0.1037,0.1048,0.1098,0.0932,0.0714,0.0575,0.0325,0.0303,0.0218,0.0177,0.0158,0.0089,0.0236,0.0317,0.0317,0.0317,0.0317,0.0317,0,0.0064,0.0126,0.0246,0.0412,0.0559,0.0624,0.0789,0.0877,0.102,0.1123,0.1197,0.1154,0.0966,0.0733,0.0413,0.0238,0.0143,0.0147,0.0088,0.0058,0.0184,0.0144,0.0213,0.0213,0.0213,0.0213,0.0213,0.0213,0.0092,0.0194,0.0254,0.0493,0.0614,0.0786,0.0876,0.0995,0.109,0.1216,0.1253,0.1257,0.1102,0.0585,0.0232,0.0136,-0.0002,0.0,-0.0068,-0.0013,-0.0011,-0.0008,-0.0058,-0.0033,-0.0033,-0.0185,-0.0186,-0.0187]}],[{"header":{"parameterUnit":"m.s-1","parameterCategory":2,"la1":30.2991,"la2":30.254,"lo1":-89.0895,"lo2":-89.0444,"dy":0.0017,"dx":0.0017,"nx":28,"ny":28,"refTime":"2023-08-20T21:00:00:Z","depth":"2","parameterNumber":2,"parameterNumberName":"U-component_of_CURRENTS"},"data":[0,0,0,0,0,0,0,0,0,0,0,0,0,0,0,0,0,0,0,0,0,0,0,0,0,0,0,0,0,0,0,0,0,0,0,0,0,0,0,0,0,0,0,0,0,0,0,0,0,0,0,0,0,0,0,0,0,0,0.1449,0.145,0,0.1502,0.1502,0.1503,0.1558,0.1559,0.156,0.1561,0.1604,0.1605,0.1605,0,0,0,0,0,0,0,0,0,0,0,0,0,0.1395,0.1396,0.1449,0.145,0.1451,0.1502,0.1502,0.1503,0.1558,0.1559,0.156,0.1561,0.1604,0.1605,0.1605,0,0,0,0,0,0,0,0,0,0,0,0,0,0.143,0.1396,0.1449,0.1485,0.1488,0.1501,0.1502,0.1503,0.1558,0.1559,0.156,0.1561,0.1604,0.1605,0.1605,0.1583,0,0,0.1607,0.1607,0,0,0,0,0,0,0,0,0.1428,0.1431,0.1479,0.1482,0.1487,0.1525,0.1499,0.153,0.1557,0.1531,0.1561,0.1562,0.1577,0.1579,0.1586,0.1585,0.1587,0.1607,0.1607,0.1608,0.1608,0,0,0,0,0,0,0,0.1425,0.1429,0.1469,0.1479,0.1484,0.1498,0.1504,0.1505,0.1545,0.1533,0.1537,0.1544,0.1579,0.1585,0.1587,0.1588,0.1607,0.1607,0.1608,0.1608,0.1639,0.164,0,0,0,0,0,0,0.1419,0.1427,0.1468,0.1471,0.146,0.1498,0.1505,0.1511,0.1546,0.1552,0.1543,0.1546,0.1583,0.1586,0.1589,0.1637,0.1608,0.1608,0.1608,0.1639,0.1639,0.164,0,0,0,0,0,0,0.1417,0.1422,0.1465,0.1451,0.1457,0.1497,0.1504,0.1511,0.1543,0.1553,0.156,0.157,0.1584,0.1588,0.1607,0.1636,0.1608,0.1609,0.1638,0.1639,0.164,0.1686,0,0,0,0,0,0,0.1415,0.1421,0.1425,0.145,0.1458,0.1491,0.1503,0.1511,0.1544,0.155,0.1578,0.1582,0.1586,0.1606,0.1608,0.1636,0.1609,0.1638,0.1639,0.1639,0.1684,0.1689,0.1693,0,0,0,0,0,0.1413,0.1418,0.1424,0.143,0.1462,0.1492,0.1497,0.1529,0.1544,0.1562,0.1577,0.1583,0.1614,0.1607,0.1608,0.1638,0.1637,0.1638,0.1639,0.1682,0.1688,0.1692,0,0,0,0,0,0,0.1408,0.1424,0.1433,0.1445,0.1473,0.1502,0.1516,0.1539,0.1564,0.1568,0.1584,0.1588,0.1625,0.1614,0.1606,0.1648,0.1628,0.163,0.166,0.1665,0.1669,0.1661,0.161,0,0,0,0,0,0.1403,0.1413,0.1433,0.1452,0.1457,0.1488,0.1505,0.1526,0.155,0.1565,0.1588,0.1604,0.1624,0.1632,0.1647,0.1657,0.1652,0.1677,0.1682,0.1685,0.1678,0.1695,0.1701,0.1644,0.1644,0.1644,0,0,0.1412,0.1421,0.1431,0.1451,0.147,0.1487,0.1503,0.153,0.1553,0.1561,0.1602,0.1625,0.1633,0.1659,0.1673,0.1656,0.17,0.1687,0.169,0.1681,0.1697,0.1703,0.1708,0.1644,0.1644,0.1644,0,0,0.1425,0.1436,0.1439,0.1455,0.1478,0.1497,0.151,0.1544,0.1565,0.1594,0.1618,0.1649,0.1674,0.1691,0.1699,0.1726,0.173,0.1742,0.1747,0.1765,0.177,0.1774,0.1781,0.1786,0.1733,0.1733,0.1734,0,0.1431,0.1439,0.145,0.1454,0.147,0.1504,0.1516,0.1541,0.1585,0.1604,0.1611,0.1673,0.1685,0.1721,0.1736,0.1738,0.1745,0.1732,0.1771,0.1775,0.1779,0.1785,0.1789,0.1736,0.1736,0.1735,0.1735,0,0.1434,0.1449,0.1455,0.1471,0.149,0.151,0.1535,0.1568,0.1598,0.1627,0.1678,0.1696,0.1733,0.1749,0.175,0.1791,0.1789,0.1786,0.1761,0.1788,0.1792,0.1796,0.1739,0.1738,0.1738,0.1737,0,0,0.1431,0.1449,0.1458,0.1466,0.1496,0.1516,0.1548,0.1589,0.1621,0.1663,0.1701,0.1744,0.177,0.1779,0.1798,0.1806,0.1844,0.1807,0.1807,0.1817,0.1884,0.1813,0.181,0.1857,0.1858,0.1858,0.1879,0,0.1433,0.1443,0.1455,0.1489,0.1494,0.1529,0.1561,0.1604,0.1642,0.169,0.1717,0.1764,0.1777,0.1801,0.1819,0.1848,0.1855,0.1838,0.1852,0.1852,0.1789,0.1812,0.1665,0.1665,0.1883,0.1883,0.1884,0,0.1422,0.1436,0.145,0.1491,0.1496,0.1524,0.158,0.1611,0.1676,0.1708,0.1758,0.1788,0.1832,0.1824,0.1877,0.1873,0.1879,0.1885,0.1886,0.1801,0.1787,0.1672,0.1663,0.1889,0.1889,0.1889,0.1888,0,0.1401,0.1435,0.1449,0.146,0.1506,0.1525,0.156,0.162,0.1647,0.1722,0.175,0.1815,0.1843,0.1872,0.1894,0.1897,0.193,0.1932,0.1869,0.1864,0.1728,0.1709,0.1947,0.1947,0.1947,0.1947,0.1947,0,0.1385,0.1401,0.1443,0.1451,0.1485,0.1514,0.1554,0.1605,0.1658,0.1695,0.1759,0.1788,0.1857,0.1883,0.1901,0.1896,0.194,0.1868,0.1864,0.174,0.1723,0.1905,0.1899,0.1948,0.1948,0.1948,0.1948,0,0.1353,0.1376,0.1399,0.1452,0.1468,0.1494,0.1544,0.1572,0.1633,0.1676,0.1698,0.1778,0.1822,0.1862,0.1905,0.1892,0.1897,0.1876,0.172,0.1696,0.182,0.1817,0.1819,0.1816,0.1814,0.1813,0.1811,0,0.133,0.134,0.1398,0.1412,0.1435,0.1472,0.1494,0.1558,0.1583,0.1662,0.1675,0.1732,0.1761,0.1795,0.1785,0.1789,0.1844,0.1643,0.161,0.181,0.1807,0.1807,0.1807,0.1457,0.1453,0.1449,0.1446,0,0.1296,0.1323,0.1338,0.1384,0.1408,0.1433,0.1468,0.1479,0.1548,0.1576,0.1613,0.1635,0.167,0.1611,0.161,0.1591,0.1635,0.1572,0.1826,0.1507,0.1469,0.1466,0.1478,0.1416,0.1419,0.1421,0.1423,0.1424,0.1264,0.1281,0.1312,0.1347,0.1372,0.1384,0.1376,0.1403,0.1416,0.1437,0.1506,0.1491,0.1504,0.143,0.1379,0.1335,0.1454,0.1391,0.1401,0.1416,0.1365,0.1325,0.1235,0.1237,0.1239,0.124,0.1242,0,0.1236,0.1256,0.1277,0.1302,0.1299,0.134,0.1346,0.1312,0.129,0.1328,0.1338,0.1221,0.1169,0.1183,0.1071,0.1057,0.105,0.101,0.0998,0.1028,0.1055,0.0987,0.0756,0.0755,0.0754,0.0752,0,0,0.1213,0.1208,0.1226,0.1213,0.1234,0.1203,0.119,0.115,0.1145,0.1099,0.1076,0.115,0.1166,0.0968,0.0922,0.0827,0.0925,0.0786,0.1175,0.1193,0.1219,0.1273,0.12,0,0,0,0,0]},{"header":{"parameterUnit":"m.s-1","parameterCategory":2,"la1":30.2991,"la2":30.254,"lo1":-89.0895,"lo2":-89.0444,"dy":0.0017,"dx":0.0017,"nx":28,"ny":28,"refTime":"2023-08-20T21:00:00:Z","depth":"2","parameterNumber":3,"parameterNumberName":"V-component_of_CURRENTS"},"data":[0,0,0,0,0,0,0,0,0,0,0,0,0,0,0,0,0,0,0,0,0,0,0,0,0,0,0,0,0,0,0,0,0,0,0,0,0,0,0,0,0,0,0,0,0,0,0,0,0,0,0,0,0,0,0,0,0,0,0.0522,0.0521,0,0.0446,0.0445,0.0444,0.0413,0.0413,0.0414,0.0414,0.0321,0.0319,0.0316,0,0,0,0,0,0,0,0,0,0,0,0,0,0.0583,0.0582,0.0522,0.0521,0.052,0.0447,0.0445,0.0444,0.0413,0.0413,0.0414,0.0414,0.0322,0.0319,0.0316,0,0,0,0,0,0,0,0,0,0,0,0,0,0.0535,0.0582,0.0522,0.0498,0.0495,0.0447,0.0445,0.0444,0.0413,0.0413,0.0414,0.0414,0.0323,0.0319,0.0315,0.0278,0,0,0.0302,0.0301,0,0,0,0,0,0,0,0,0.0538,0.0533,0.0502,0.0499,0.0496,0.0442,0.0433,0.0388,0.0413,0.0441,0.0414,0.0415,0.0361,0.0354,0.0335,0.0274,0.027,0.0302,0.0299,0.0298,0.0296,0,0,0,0,0,0,0,0.0541,0.0535,0.0489,0.0501,0.0497,0.0472,0.0466,0.0424,0.0397,0.0439,0.0437,0.0432,0.0359,0.034,0.0333,0.0269,0.0302,0.0298,0.0296,0.0294,0.0202,0.0202,0,0,0,0,0,0,0.0557,0.0539,0.0492,0.0487,0.0521,0.0471,0.0464,0.0457,0.0398,0.039,0.0432,0.0431,0.0347,0.0338,0.033,0.0296,0.0298,0.0294,0.0291,0.0202,0.0202,0.0202,0,0,0,0,0,0,0.0559,0.0554,0.0495,0.0513,0.0504,0.047,0.0461,0.0455,0.0432,0.0393,0.0385,0.0416,0.0347,0.0336,0.0296,0.0292,0.0292,0.0288,0.0202,0.0202,0.0202,0.022,0,0,0,0,0,0,0.0561,0.0555,0.055,0.0514,0.0504,0.0462,0.0461,0.0453,0.0429,0.0427,0.0376,0.0368,0.0346,0.0303,0.0292,0.0286,0.0285,0.0201,0.0202,0.0202,0.0219,0.0221,0.0222,0,0,0,0,0,0.0563,0.0547,0.055,0.0544,0.05,0.0462,0.0453,0.0429,0.0428,0.0411,0.0386,0.037,0.0297,0.0298,0.0286,0.0279,0.0201,0.0202,0.0202,0.0219,0.022,0.0222,0,0,0,0,0,0,0.0559,0.0542,0.0544,0.0521,0.0496,0.0457,0.0438,0.0425,0.039,0.0392,0.0359,0.0348,0.0313,0.0294,0.0298,0.0256,0.025,0.0248,0.0267,0.0269,0.027,0.0296,0.0281,0,0,0,0,0,0.0561,0.0548,0.0528,0.0506,0.05,0.0471,0.0452,0.0439,0.0407,0.0392,0.0361,0.0333,0.0303,0.0285,0.0253,0.0222,0.021,0.0214,0.0216,0.0217,0.0231,0.021,0.021,0.0202,0.0202,0.0202,0,0,0.0546,0.054,0.0528,0.0506,0.0487,0.0474,0.0459,0.0432,0.0424,0.0387,0.036,0.0328,0.0295,0.0265,0.0249,0.0249,0.021,0.0217,0.0218,0.0232,0.021,0.0211,0.0211,0.0202,0.0202,0.0202,0,0,0.0521,0.0515,0.0504,0.0493,0.0478,0.0465,0.046,0.0427,0.0417,0.0386,0.0366,0.0338,0.0283,0.0267,0.0251,0.024,0.0214,0.0227,0.0254,0.0232,0.0233,0.0233,0.0207,0.0205,0.0231,0.0231,0.0231,0,0.0509,0.0503,0.049,0.0488,0.0486,0.0465,0.0462,0.0442,0.0401,0.0399,0.0384,0.0324,0.0291,0.0269,0.0268,0.0243,0.0225,0.0248,0.0234,0.0234,0.0234,0.0208,0.0205,0.0232,0.0232,0.0232,0.0232,0,0.0487,0.0487,0.0478,0.0481,0.0472,0.046,0.0453,0.044,0.043,0.0415,0.0388,0.0345,0.0317,0.0297,0.0276,0.0262,0.0245,0.0234,0.0231,0.0236,0.0208,0.0205,0.0233,0.0233,0.0233,0.0233,0,0,0.0452,0.0464,0.0462,0.0482,0.0477,0.047,0.0467,0.0462,0.0468,0.0429,0.043,0.0379,0.0361,0.0344,0.0311,0.0293,0.0268,0.0268,0.0266,0.0244,0.0214,0.0207,0.0203,0.0249,0.0249,0.0249,0.0189,0,0.0445,0.0457,0.046,0.0472,0.0484,0.0485,0.0486,0.0482,0.0472,0.0464,0.0433,0.0412,0.0377,0.0363,0.0339,0.0287,0.0263,0.0285,0.0211,0.0209,0.0204,0.0201,0.0217,0.0166,0.0186,0.0186,0.0185,0,0.0434,0.045,0.0467,0.0503,0.0507,0.051,0.0533,0.0531,0.0521,0.0513,0.0494,0.0464,0.0432,0.0402,0.0326,0.0339,0.0283,0.0242,0.0238,0.0229,0.0198,0.0166,0.016,0.0181,0.0181,0.0181,0.0182,0,0.0442,0.0462,0.0486,0.0494,0.0517,0.0532,0.0543,0.0545,0.0559,0.0548,0.055,0.0505,0.0483,0.0416,0.0331,0.0325,0.0246,0.0225,0.0166,0.0164,0.0164,0.0163,0.0174,0.0174,0.0174,0.0175,0.0175,0,0.0449,0.0468,0.0495,0.0507,0.0543,0.0554,0.0586,0.0589,0.0598,0.0618,0.0578,0.0577,0.0486,0.043,0.0347,0.0252,0.0256,0.0176,0.0152,0.0169,0.0169,0.0177,0.0178,0.0172,0.0173,0.0173,0.0174,0,0.0458,0.047,0.0502,0.0533,0.055,0.0576,0.0621,0.0643,0.0644,0.0669,0.0668,0.0629,0.0559,0.0463,0.0351,0.0276,0.0184,0.0147,0.0173,0.0154,0.0109,0.0111,0.0075,0.0074,0.0074,0.0073,0.0073,0,0.0465,0.0483,0.0523,0.0548,0.0566,0.0608,0.0641,0.0663,0.0691,0.0702,0.0716,0.0663,0.0631,0.0468,0.0336,0.0196,0.0175,0.0111,0.0106,0.012,0.01,0.0104,0.0107,0.0103,0.0103,0.0103,0.0103,0,0.0486,0.0496,0.0522,0.0569,0.061,0.0658,0.0707,0.0735,0.0763,0.0782,0.0793,0.077,0.0631,0.0502,0.0319,0.0222,0.0137,0.0105,0.011,0.0132,0.0143,0.0125,0.0128,0.0102,0.0102,0.0102,0.0102,0.0102,0.0504,0.0523,0.0554,0.0598,0.0645,0.0699,0.0737,0.0787,0.0834,0.0859,0.0845,0.0809,0.0674,0.0442,0.0288,0.0127,0.0135,0.007,0.0072,0.0073,0.0094,0.0104,0.0058,0.0058,0.0058,0.0058,0.0058,0,0.0531,0.0551,0.0587,0.0636,0.0677,0.0704,0.0776,0.0808,0.0862,0.0889,0.0894,0.0752,0.0617,0.0455,0.0227,0.009,0.0077,0.0034,0.0055,0.0057,0.0059,0.0079,0.0039,0.0039,0.0038,0.0038,0,0,0.0547,0.0584,0.0592,0.0651,0.0686,0.0742,0.078,0.0834,0.0869,0.0882,0.0865,0.084,0.0662,0.0489,0.0308,0.0177,0.0142,0.0142,0.0173,0.0222,0.0225,0.0099,0.0135,0,0,0,0,0]}],[{"header":{"parameterUnit":"m.s-1","parameterCategory":2,"la1":30.2991,"la2":30.254,"lo1":-89.0895,"lo2":-89.0444,"dy":0.0017,"dx":0.0017,"nx":28,"ny":28,"refTime":"2023-08-20T21:00:00:Z","depth":"4","parameterNumber":2,"parameterNumberName":"U-component_of_CURRENTS"},"data":[0,0,0,0,0,0,0,0,0,0,0,0,0,0,0,0,0,0,0,0,0,0,0,0,0,0,0,0,0,0,0,0,0,0,0,0,0,0,0,0,0,0,0,0,0,0,0,0,0,0,0,0,0,0,0,0,0,0,0.0625,0.0625,0,0.0641,0.0641,0.0641,0.0659,0.0659,0.0659,0.0659,0.0738,0.0739,0.0741,0,0,0,0,0,0,0,0,0,0,0,0,0,0.0584,0.0585,0.0625,0.0625,0.0625,0.0641,0.0641,0.0641,0.0659,0.0659,0.0659,0.066,0.0737,0.0739,0.0742,0,0,0,0,0,0,0,0,0,0,0,0,0,0.0602,0.0585,0.0625,0.0635,0.0636,0.0641,0.0641,0.0641,0.0659,0.0659,0.0659,0.066,0.0736,0.0739,0.0742,0.0754,0,0,0.0751,0.0752,0,0,0,0,0,0,0,0,0.0601,0.0603,0.0633,0.0634,0.0636,0.0647,0.0655,0.0682,0.0659,0.0651,0.0659,0.066,0.0713,0.0717,0.072,0.0757,0.0761,0.0751,0.0753,0.0754,0.0755,0,0,0,0,0,0,0,0.0599,0.0602,0.0632,0.0634,0.0635,0.063,0.0633,0.066,0.0682,0.0652,0.0653,0.0653,0.0714,0.0717,0.0722,0.0762,0.0751,0.0753,0.0755,0.0756,0.0857,0.0858,0,0,0,0,0,0,0.0597,0.0601,0.0631,0.0632,0.0618,0.0631,0.0634,0.0644,0.068,0.0685,0.0653,0.0654,0.0712,0.0719,0.0725,0.0792,0.0754,0.0756,0.0758,0.0856,0.0857,0.0858,0,0,0,0,0,0,0.0596,0.06,0.0631,0.0616,0.0619,0.0631,0.0642,0.0644,0.0666,0.068,0.0687,0.0675,0.0713,0.0721,0.0762,0.0793,0.0758,0.076,0.0855,0.0856,0.0857,0.0893,0,0,0,0,0,0,0.0595,0.06,0.0617,0.0616,0.062,0.0649,0.0642,0.0644,0.0665,0.0667,0.0701,0.0707,0.0713,0.0758,0.0765,0.0796,0.0763,0.0853,0.0855,0.0857,0.0891,0.0896,0.09,0,0,0,0,0,0.0594,0.0613,0.0618,0.0622,0.0641,0.065,0.0652,0.0661,0.0666,0.0681,0.0701,0.0707,0.0774,0.0761,0.0769,0.0802,0.0852,0.0855,0.0857,0.0889,0.0895,0.09,0,0,0,0,0,0,0.0604,0.0617,0.0622,0.0646,0.0655,0.0653,0.0672,0.0673,0.07,0.0712,0.0721,0.0729,0.0776,0.0783,0.0767,0.0835,0.0815,0.0818,0.0836,0.0842,0.0846,0.0846,0.0765,0,0,0,0,0,0.0614,0.0636,0.064,0.0662,0.0671,0.0675,0.0685,0.0691,0.0706,0.0718,0.0737,0.0762,0.0788,0.0809,0.0832,0.0872,0.0874,0.0897,0.0902,0.0905,0.0911,0.0932,0.0939,0.0865,0.0865,0.0865,0,0,0.0621,0.0634,0.0645,0.0666,0.0678,0.0693,0.0683,0.0707,0.0722,0.0724,0.0764,0.0783,0.0802,0.0843,0.0865,0.0856,0.0929,0.0908,0.0911,0.0914,0.0935,0.0942,0.0948,0.0866,0.0866,0.0866,0,0,0.0642,0.0663,0.0687,0.0699,0.0721,0.0723,0.0734,0.0747,0.076,0.0794,0.0799,0.0834,0.0874,0.0891,0.0904,0.0948,0.0951,0.0959,0.0987,0.1008,0.1014,0.102,0.1036,0.1042,0.0963,0.0963,0.0963,0,0.0651,0.068,0.0694,0.0719,0.0731,0.0739,0.076,0.0773,0.0797,0.0813,0.0817,0.0876,0.0897,0.0939,0.0954,0.0961,0.0968,0.0965,0.1014,0.1019,0.1024,0.1039,0.1046,0.0965,0.0965,0.0965,0.0964,0,0.0682,0.071,0.0727,0.076,0.0777,0.0798,0.0811,0.0836,0.0854,0.0865,0.0915,0.0937,0.0971,0.0985,0.0988,0.1035,0.1028,0.1016,0.0999,0.1034,0.1047,0.1054,0.0968,0.0967,0.0966,0.0966,0,0,0.0683,0.0737,0.0745,0.0765,0.0801,0.0813,0.0849,0.0877,0.0902,0.0934,0.0967,0.1015,0.1027,0.1042,0.1051,0.1072,0.1118,0.1064,0.1064,0.1078,0.1164,0.107,0.1067,0.1114,0.1115,0.1116,0.116,0,0.0703,0.0752,0.0775,0.0816,0.0837,0.0859,0.0888,0.0918,0.0945,0.0979,0.1008,0.105,0.1047,0.1074,0.1094,0.1114,0.1136,0.1107,0.1129,0.113,0.1041,0.1072,0.112,0.1165,0.1166,0.1167,0.1168,0,0.0718,0.0752,0.0799,0.0843,0.0856,0.0883,0.093,0.0958,0.1005,0.1029,0.107,0.1089,0.1139,0.1125,0.1176,0.1158,0.1168,0.1175,0.1177,0.108,0.1047,0.1122,0.1179,0.1178,0.1177,0.1177,0.1176,0,0.0704,0.0762,0.0801,0.0817,0.0872,0.0902,0.0933,0.098,0.101,0.1067,0.1098,0.1143,0.118,0.1199,0.1217,0.1207,0.1257,0.1242,0.1166,0.1159,0.1215,0.1209,0.1275,0.1275,0.1275,0.1275,0.1275,0,0.0702,0.0733,0.0802,0.0824,0.0869,0.0908,0.0958,0.0993,0.105,0.1085,0.1128,0.1157,0.1203,0.123,0.1234,0.1216,0.1274,0.1176,0.1165,0.1229,0.1224,0.122,0.1213,0.1276,0.1276,0.1276,0.1275,0,0.0674,0.0722,0.0768,0.0841,0.0865,0.09,0.0972,0.1003,0.1063,0.111,0.1136,0.1192,0.1224,0.1247,0.1282,0.1235,0.1229,0.1207,0.128,0.1272,0.1116,0.1111,0.113,0.1127,0.1125,0.1123,0.1121,0,0.066,0.0686,0.0774,0.0805,0.0843,0.09,0.0936,0.1004,0.1033,0.1116,0.1132,0.1191,0.1215,0.1188,0.1216,0.1209,0.119,0.1177,0.114,0.1114,0.1102,0.1101,0.1099,0.1117,0.1117,0.1116,0.1115,0,0.0632,0.0675,0.0716,0.0784,0.0834,0.0875,0.0932,0.0948,0.1021,0.1085,0.1101,0.1106,0.1132,0.1137,0.1137,0.1129,0.1178,0.1151,0.1156,0.1121,0.1098,0.1089,0.109,0.1107,0.1108,0.1109,0.1109,0,0.0611,0.0631,0.0697,0.0748,0.0808,0.0835,0.0869,0.0901,0.0939,0.1023,0.1026,0.1075,0.1128,0.1096,0.1097,0.1077,0.1058,0.1013,0.1024,0.1034,0.0977,0.0933,0.0885,0,0,0,0,0,0.0584,0.0606,0.0652,0.0707,0.0764,0.0798,0.0858,0.089,0.0957,0.0945,0.0981,0.0996,0.0989,0.1014,0.0974,0.1049,0.1062,0.0996,0.1017,0.1059,0.1069,0.1007,0,0,0,0,0,0,0.0568,0.061,0.0634,0.0664,0.069,0.0741,0.0777,0.0822,0.0816,0.0884,0.0889,0.0932,0.0945,0.1006,0.0956,0.0961,0.095,0.1026,0.1023,0.1053,0.1062,0.107,0.101,0,0,0,0,0]},{"header":{"parameterUnit":"m.s-1","parameterCategory":2,"la1":30.2991,"la2":30.254,"lo1":-89.0895,"lo2":-89.0444,"dy":0.0017,"dx":0.0017,"nx":28,"ny":28,"refTime":"2023-08-20T21:00:00:Z","depth":"4","parameterNumber":3,"parameterNumberName":"V-component_of_CURRENTS"},"data":[0,0,0,0,0,0,0,0,0,0,0,0,0,0,0,0,0,0,0,0,0,0,0,0,0,0,0,0,0,0,0,0,0,0,0,0,0,0,0,0,0,0,0,0,0,0,0,0,0,0,0,0,0,0,0,0,0,0,0.0475,0.0475,0,0.0446,0.0446,0.0445,0.0449,0.0449,0.045,0.0451,0.0429,0.0428,0.0427,0,0,0,0,0,0,0,0,0,0,0,0,0,0.0503,0.0503,0.0475,0.0475,0.0475,0.0446,0.0446,0.0445,0.0449,0.045,0.045,0.0451,0.0429,0.0428,0.0427,0,0,0,0,0,0,0,0,0,0,0,0,0,0.0484,0.0503,0.0475,0.0474,0.0473,0.0446,0.0446,0.0445,0.0449,0.045,0.045,0.0451,0.043,0.0428,0.0427,0.0399,0,0,0.0421,0.0421,0,0,0,0,0,0,0,0,0.0485,0.0482,0.0474,0.0474,0.0473,0.0453,0.0448,0.0431,0.0448,0.0457,0.0451,0.0452,0.0438,0.0435,0.0427,0.0398,0.0398,0.0421,0.042,0.042,0.0419,0,0,0,0,0,0,0,0.0486,0.0484,0.0463,0.0474,0.0473,0.0464,0.0463,0.0444,0.0442,0.0456,0.0457,0.0455,0.0438,0.0428,0.0426,0.0397,0.0421,0.042,0.0419,0.0418,0.0375,0.0375,0,0,0,0,0,0,0.0492,0.0485,0.0464,0.0462,0.0482,0.0463,0.0461,0.0458,0.0442,0.0441,0.0454,0.0455,0.0431,0.0428,0.0425,0.0415,0.042,0.0418,0.0417,0.0375,0.0375,0.0375,0,0,0,0,0,0,0.0493,0.0491,0.0465,0.0474,0.047,0.0462,0.0458,0.0457,0.0456,0.0441,0.044,0.0456,0.0431,0.0428,0.0416,0.0413,0.0417,0.0416,0.0375,0.0375,0.0375,0.0379,0,0,0,0,0,0,0.0494,0.0491,0.0491,0.0474,0.047,0.0451,0.0457,0.0456,0.0454,0.0455,0.0442,0.044,0.0431,0.0419,0.0415,0.0411,0.0415,0.0375,0.0375,0.0375,0.0379,0.0379,0.0379,0,0,0,0,0,0.0495,0.0487,0.0492,0.0489,0.047,0.045,0.0447,0.0444,0.0453,0.0447,0.0444,0.0441,0.0414,0.0417,0.0413,0.0408,0.0376,0.0375,0.0375,0.0379,0.0379,0.0379,0,0,0,0,0,0,0.0499,0.0486,0.0491,0.0481,0.047,0.0451,0.0446,0.0446,0.0438,0.0443,0.0435,0.0432,0.0422,0.0413,0.0417,0.0395,0.0396,0.0394,0.04,0.04,0.04,0.041,0.0413,0,0,0,0,0,0.0501,0.0493,0.0481,0.0474,0.047,0.046,0.0454,0.0451,0.0441,0.0439,0.0432,0.0425,0.0413,0.0407,0.0395,0.0379,0.0363,0.0374,0.0374,0.0374,0.0379,0.0349,0.0347,0.0373,0.0373,0.0373,0,0,0.0501,0.0493,0.0489,0.0475,0.0467,0.0458,0.0458,0.0447,0.0445,0.0437,0.0433,0.0423,0.0409,0.0395,0.039,0.0389,0.0356,0.0373,0.0374,0.0379,0.0349,0.0346,0.0344,0.0373,0.0373,0.0373,0,0,0.049,0.049,0.0479,0.0472,0.0462,0.0457,0.0457,0.0443,0.0443,0.0433,0.0431,0.042,0.0402,0.0392,0.0384,0.0375,0.0357,0.0372,0.0377,0.0348,0.0345,0.0343,0.0312,0.0307,0.0371,0.0371,0.0371,0,0.0491,0.0481,0.0473,0.0463,0.0463,0.0459,0.0455,0.0447,0.0434,0.0435,0.0435,0.0412,0.04,0.0385,0.0384,0.0374,0.0355,0.0378,0.0347,0.0345,0.0342,0.0311,0.0306,0.0371,0.0371,0.0371,0.0371,0,0.0469,0.047,0.0463,0.0456,0.0452,0.0446,0.0442,0.044,0.0444,0.0439,0.0429,0.041,0.04,0.039,0.0384,0.0363,0.0354,0.0351,0.0348,0.034,0.0308,0.0302,0.0371,0.0371,0.0371,0.0371,0,0,0.0451,0.045,0.045,0.046,0.0453,0.0451,0.0449,0.0447,0.0452,0.0437,0.0436,0.0414,0.041,0.0401,0.0388,0.0363,0.0325,0.0352,0.035,0.0322,0.0256,0.025,0.0242,0.0314,0.0314,0.0313,0.0238,0,0.0441,0.0436,0.0436,0.0444,0.0447,0.0452,0.0453,0.0453,0.0451,0.0447,0.0428,0.0421,0.0412,0.0407,0.038,0.0343,0.0311,0.0345,0.0269,0.0266,0.0262,0.0236,0.031,0.0233,0.0232,0.0231,0.023,0,0.042,0.0426,0.0433,0.0456,0.0458,0.0464,0.048,0.048,0.047,0.0468,0.0455,0.044,0.041,0.04,0.0329,0.0351,0.0306,0.0272,0.0268,0.0259,0.0249,0.0245,0.0219,0.022,0.0221,0.0222,0.0222,0,0.0419,0.0428,0.0443,0.0447,0.0463,0.0476,0.0488,0.0489,0.0496,0.0483,0.0482,0.0444,0.0428,0.0368,0.0307,0.0314,0.0221,0.0219,0.0167,0.0165,0.0193,0.0197,0.0159,0.0159,0.016,0.016,0.016,0,0.041,0.0424,0.0448,0.0457,0.0483,0.0491,0.0514,0.0517,0.0518,0.0523,0.0498,0.0486,0.0419,0.0363,0.0302,0.0217,0.0214,0.0162,0.0144,0.0196,0.02,0.0188,0.0193,0.0157,0.0158,0.0158,0.0159,0,0.0405,0.0417,0.044,0.0469,0.0484,0.0505,0.054,0.0551,0.0551,0.0555,0.0552,0.0511,0.044,0.0365,0.0263,0.0213,0.0131,0.0099,0.0156,0.0144,0.0093,0.0099,0.0029,0.0028,0.0028,0.0027,0.0026,0,0.0399,0.0411,0.0454,0.0474,0.0493,0.0527,0.0549,0.0567,0.0578,0.0568,0.0565,0.0507,0.0469,0.0319,0.0242,0.0114,0.0101,0.0053,0.0076,0.009,0.0079,0.0086,0.0092,0.0025,0.0025,0.0025,0.0025,0,0.0396,0.0416,0.0438,0.048,0.0513,0.0547,0.0581,0.059,0.0602,0.0605,0.0568,0.0498,0.0416,0.0313,0.0215,0.0127,0.0083,0.0045,0.0046,0.0067,0.0084,0.0076,0.0083,0.0022,0.0022,0.0023,0.0023,0,0.0398,0.0413,0.0446,0.0481,0.0522,0.0553,0.0573,0.0585,0.0596,0.0587,0.0571,0.0491,0.0448,0.0318,0.0227,0.0141,0.0121,0.0093,0.0091,0.0093,0.014,0.0172,0.0115,0,0,0,0,0,0.0398,0.0414,0.0444,0.048,0.0519,0.0544,0.0585,0.0601,0.0615,0.0589,0.0581,0.0505,0.0374,0.032,0.0231,0.0211,0.0105,0.0103,0.0071,0.0007,0.001,0.0055,0,0,0,0,0,0,0.0396,0.0427,0.0438,0.0471,0.0493,0.0536,0.0564,0.0576,0.0563,0.0565,0.0498,0.0474,0.0349,0.042,0.0225,0.02,0.0165,0.0048,0.0046,0.0006,0.0008,0.0011,0.0057,0,0,0,0,0]}]]